contact:dominique.lefevre@mio.osupytheas.fr, maurice.libes@osupytheas.fr, didier.mallarino@osupytheas.fr
Project:EMSO http://www.emso-fr.org/EMSO-France
Depth: 2436.0 m
Title:EMSO Ligure Ouest : Data MII capteur MICROCAT
DateTime_Computer,Latitude,Longitude,Temperature,Conductivity,Pressure,DateTime_Instrument
DateTime_Computer,Latitude,Longitude,degC,S m-1,dbar,DateTime_Instrument
2021-04-28T00:02:46Z,42.805,6.029,13.2981,4.59986,2469.597,2021-4-28T02:03:55Z
2021-04-28T00:05:49Z,42.805,6.029,13.2982,4.59985,2469.62,2021-4-28T02:06:58Z
2021-04-28T00:08:52Z,42.805,6.029,13.2983,4.59985,2469.634,2021-4-28T02:10:02Z
2021-04-28T00:11:55Z,42.805,6.029,13.2981,4.59985,2469.62,2021-4-28T02:13:05Z
2021-04-28T00:14:58Z,42.805,6.029,13.2981,4.59985,2469.634,2021-4-28T02:16:08Z
2021-04-28T00:18:01Z,42.805,6.029,13.2982,4.59986,2469.61,2021-4-28T02:19:11Z
2021-04-28T00:21:04Z,42.805,6.029,13.2980,4.59986,2469.634,2021-4-28T02:22:14Z
2021-04-28T00:24:08Z,42.805,6.029,13.2981,4.59986,2469.62,2021-4-28T02:25:17Z
2021-04-28T00:27:11Z,42.805,6.029,13.2984,4.59986,2469.634,2021-4-28T02:28:20Z
2021-04-28T00:30:14Z,42.805,6.029,13.2976,4.59985,2469.634,2021-4-28T02:31:23Z
2021-04-28T00:33:17Z,42.805,6.029,13.2981,4.59986,2469.61,2021-4-28T02:34:27Z
2021-04-28T00:36:20Z,42.805,6.029,13.2984,4.59985,2469.62,2021-4-28T02:37:30Z
2021-04-28T00:39:23Z,42.805,6.029,13.2983,4.59986,2469.597,2021-4-28T02:40:33Z
2021-04-28T00:42:26Z,42.805,6.029,13.2981,4.59986,2469.61,2021-4-28T02:43:36Z
2021-04-28T00:45:29Z,42.805,6.029,13.2977,4.59985,2469.62,2021-4-28T02:46:39Z
2021-04-28T00:48:33Z,42.805,6.029,13.2982,4.59986,2469.62,2021-4-28T02:49:42Z
2021-04-28T00:51:36Z,42.805,6.029,13.2982,4.59985,2469.634,2021-4-28T02:52:45Z
2021-04-28T00:54:39Z,42.805,6.029,13.2979,4.59985,2469.643,2021-4-28T02:55:48Z
2021-04-28T00:57:42Z,42.805,6.029,13.2980,4.59986,2469.62,2021-4-28T02:58:52Z
2021-04-28T01:00:45Z,42.805,6.029,13.2983,4.59986,2469.657,2021-4-28T03:01:55Z
2021-04-28T01:03:48Z,42.805,6.029,13.2982,4.59986,2469.634,2021-4-28T03:04:58Z
2021-04-28T01:06:51Z,42.805,6.029,13.2979,4.59986,2469.657,2021-4-28T03:08:01Z
2021-04-28T01:09:54Z,42.805,6.029,13.2980,4.59986,2469.643,2021-4-28T03:11:04Z
2021-04-28T01:12:58Z,42.805,6.029,13.2983,4.59984,2469.62,2021-4-28T03:14:07Z
2021-04-28T01:16:01Z,42.805,6.029,13.2981,4.59986,2469.667,2021-4-28T03:17:10Z
2021-04-28T01:19:04Z,42.805,6.029,13.2979,4.59986,2469.634,2021-4-28T03:20:13Z
2021-04-28T01:22:07Z,42.805,6.029,13.2981,4.59986,2469.667,2021-4-28T03:23:17Z
2021-04-28T01:25:10Z,42.805,6.029,13.2979,4.59986,2469.667,2021-4-28T03:26:20Z
2021-04-28T01:28:13Z,42.805,6.029,13.2983,4.59984,2469.643,2021-4-28T03:29:23Z
2021-04-28T01:31:16Z,42.805,6.029,13.2977,4.59986,2469.667,2021-4-28T03:32:26Z
2021-04-28T01:34:19Z,42.805,6.029,13.2982,4.59985,2469.69,2021-4-28T03:35:29Z
2021-04-28T01:37:23Z,42.805,6.029,13.2981,4.59984,2469.667,2021-4-28T03:38:32Z
2021-04-28T01:40:26Z,42.805,6.029,13.2977,4.59985,2469.69,2021-4-28T03:41:35Z
2021-04-28T01:43:29Z,42.805,6.029,13.2982,4.59984,2469.667,2021-4-28T03:44:38Z
2021-04-28T01:46:32Z,42.805,6.029,13.2980,4.59986,2469.713,2021-4-28T03:47:42Z
2021-04-28T01:49:35Z,42.805,6.029,13.2986,4.59986,2469.643,2021-4-28T03:50:45Z
2021-04-28T01:52:38Z,42.805,6.029,13.2980,4.59985,2469.69,2021-4-28T03:53:48Z
2021-04-28T01:55:41Z,42.805,6.029,13.2980,4.59986,2469.667,2021-4-28T03:56:51Z
2021-04-28T01:58:44Z,42.805,6.029,13.2984,4.59986,2469.704,2021-4-28T03:59:54Z
2021-04-28T02:01:48Z,42.805,6.029,13.2979,4.59985,2469.704,2021-4-28T04:02:57Z
2021-04-28T02:04:51Z,42.805,6.029,13.2982,4.59988,2469.69,2021-4-28T04:06:00Z
2021-04-28T02:07:54Z,42.805,6.029,13.2980,4.59986,2469.653,2021-4-28T04:09:03Z
2021-04-28T02:10:57Z,42.805,6.029,13.2984,4.59986,2469.69,2021-4-28T04:12:07Z
2021-04-28T02:14:00Z,42.805,6.029,13.2981,4.59985,2469.68,2021-4-28T04:15:10Z
2021-04-28T02:17:03Z,42.805,6.029,13.2977,4.59987,2469.676,2021-4-28T04:18:13Z
2021-04-28T02:20:06Z,42.805,6.029,13.2976,4.59985,2469.69,2021-4-28T04:21:16Z
2021-04-28T02:23:09Z,42.805,6.029,13.2980,4.59986,2469.667,2021-4-28T04:24:19Z
2021-04-28T02:26:13Z,42.805,6.029,13.2983,4.59986,2469.69,2021-4-28T04:27:22Z
2021-04-28T02:29:16Z,42.805,6.029,13.2982,4.59985,2469.69,2021-4-28T04:30:25Z
2021-04-28T02:32:19Z,42.805,6.029,13.2982,4.59987,2469.727,2021-4-28T04:33:28Z
2021-04-28T02:35:22Z,42.805,6.029,13.2979,4.59985,2469.704,2021-4-28T04:36:32Z
2021-04-28T02:38:25Z,42.805,6.029,13.2982,4.59985,2469.667,2021-4-28T04:39:35Z
2021-04-28T02:41:28Z,42.805,6.029,13.2978,4.59987,2469.704,2021-4-28T04:42:38Z
2021-04-28T02:44:31Z,42.805,6.029,13.2981,4.59986,2469.713,2021-4-28T04:45:41Z
2021-04-28T02:47:34Z,42.805,6.029,13.2980,4.59955,2469.69,2021-4-28T04:48:44Z
2021-04-28T02:50:38Z,42.805,6.029,13.2983,4.59985,2469.69,2021-4-28T04:51:47Z
2021-04-28T02:53:41Z,42.805,6.029,13.2981,4.59986,2469.737,2021-4-28T04:54:50Z
2021-04-28T02:56:44Z,42.805,6.029,13.2979,4.59986,2469.737,2021-4-28T04:57:53Z
2021-04-28T02:59:47Z,42.805,6.029,13.2979,4.59986,2469.713,2021-4-28T05:00:57Z
2021-04-28T03:02:50Z,42.805,6.029,13.2982,4.59986,2469.713,2021-4-28T05:04:00Z
2021-04-28T03:05:53Z,42.805,6.029,13.2983,4.59986,2469.713,2021-4-28T05:07:03Z
2021-04-28T03:08:56Z,42.805,6.029,13.2979,4.59986,2469.713,2021-4-28T05:10:06Z
2021-04-28T03:11:59Z,42.805,6.029,13.2979,4.59988,2469.727,2021-4-28T05:13:09Z
2021-04-28T03:15:02Z,42.805,6.029,13.2983,4.59986,2469.737,2021-4-28T05:16:12Z
2021-04-28T03:18:06Z,42.805,6.029,13.2983,4.59985,2469.713,2021-4-28T05:19:15Z
2021-04-28T03:21:09Z,42.805,6.029,13.2980,4.59986,2469.75,2021-4-28T05:22:18Z
2021-04-28T03:24:12Z,42.805,6.029,13.2982,4.59986,2469.727,2021-4-28T05:25:22Z
2021-04-28T03:27:15Z,42.805,6.029,13.2980,4.59986,2469.737,2021-4-28T05:28:25Z
2021-04-28T03:30:18Z,42.805,6.029,13.2981,4.59986,2469.75,2021-4-28T05:31:28Z
2021-04-28T03:33:21Z,42.805,6.029,13.2978,4.59984,2469.727,2021-4-28T05:34:31Z
2021-04-28T03:36:24Z,42.805,6.029,13.2978,4.59986,2469.69,2021-4-28T05:37:34Z
2021-04-28T03:39:28Z,42.805,6.029,13.2980,4.59986,2469.69,2021-4-28T05:40:37Z
2021-04-28T03:42:31Z,42.805,6.029,13.2979,4.59984,2469.713,2021-4-28T05:43:40Z
2021-04-28T03:45:34Z,42.805,6.029,13.2982,4.59986,2469.713,2021-4-28T05:46:43Z
2021-04-28T03:48:37Z,42.805,6.029,13.2976,4.59987,2469.737,2021-4-28T05:49:47Z
2021-04-28T03:51:40Z,42.805,6.029,13.2979,4.59986,2469.75,2021-4-28T05:52:50Z
2021-04-28T03:54:43Z,42.805,6.029,13.2982,4.59986,2469.737,2021-4-28T05:55:53Z
2021-04-28T03:57:46Z,42.805,6.029,13.2983,4.59986,2469.75,2021-4-28T05:58:56Z
2021-04-28T04:00:49Z,42.805,6.029,13.2980,4.59985,2469.737,2021-4-28T06:01:59Z
2021-04-28T04:03:52Z,42.805,6.029,13.2978,4.59986,2469.737,2021-4-28T06:05:02Z
2021-04-28T04:06:56Z,42.805,6.029,13.2980,4.59985,2469.75,2021-4-28T06:08:05Z
2021-04-28T04:09:59Z,42.805,6.029,13.2982,4.59986,2469.737,2021-4-28T06:11:08Z
2021-04-28T04:13:02Z,42.805,6.029,13.2982,4.59985,2469.713,2021-4-28T06:14:11Z
2021-04-28T04:16:05Z,42.805,6.029,13.2981,4.59986,2469.76,2021-4-28T06:17:15Z
2021-04-28T04:19:08Z,42.805,6.029,13.2981,4.59986,2469.713,2021-4-28T06:20:18Z
2021-04-28T04:22:11Z,42.805,6.029,13.2981,4.59985,2469.76,2021-4-28T06:23:21Z
2021-04-28T04:25:14Z,42.805,6.029,13.2982,4.59987,2469.76,2021-4-28T06:26:24Z
2021-04-28T04:28:17Z,42.805,6.029,13.2980,4.59985,2469.773,2021-4-28T06:29:27Z
2021-04-28T04:31:21Z,42.805,6.029,13.2982,4.59985,2469.783,2021-4-28T06:32:30Z
2021-04-28T04:34:24Z,42.805,6.029,13.2979,4.59985,2469.773,2021-4-28T06:35:33Z
2021-04-28T04:37:27Z,42.805,6.029,13.2977,4.59986,2469.76,2021-4-28T06:38:36Z
2021-04-28T04:40:30Z,42.805,6.029,13.2979,4.59986,2469.797,2021-4-28T06:41:40Z
2021-04-28T04:43:33Z,42.805,6.029,13.2982,4.59986,2469.773,2021-4-28T06:44:43Z
2021-04-28T04:46:36Z,42.805,6.029,13.2983,4.59986,2469.783,2021-4-28T06:47:46Z
2021-04-28T04:49:39Z,42.805,6.029,13.2983,4.59986,2469.773,2021-4-28T06:50:49Z
2021-04-28T04:52:42Z,42.805,6.029,13.2979,4.59985,2469.76,2021-4-28T06:53:52Z
2021-04-28T04:55:46Z,42.805,6.029,13.2982,4.59985,2469.806,2021-4-28T06:56:55Z
2021-04-28T04:58:49Z,42.805,6.029,13.2981,4.59986,2469.783,2021-4-28T06:59:58Z
2021-04-28T05:01:52Z,42.805,6.029,13.2980,4.59988,2469.797,2021-4-28T07:03:01Z
2021-04-28T05:04:55Z,42.805,6.029,13.2979,4.59986,2469.806,2021-4-28T07:06:05Z
2021-04-28T05:07:58Z,42.805,6.029,13.2980,4.59986,2469.793,2021-4-28T07:09:08Z
2021-04-28T05:11:01Z,42.805,6.029,13.2982,4.59985,2469.797,2021-4-28T07:12:11Z
2021-04-28T05:14:04Z,42.805,6.029,13.2982,4.59986,2469.806,2021-4-28T07:15:14Z
2021-04-28T05:17:07Z,42.805,6.029,13.2979,4.59986,2469.806,2021-4-28T07:18:17Z
2021-04-28T05:20:11Z,42.805,6.029,13.2980,4.59986,2469.806,2021-4-28T07:21:20Z
2021-04-28T05:23:14Z,42.805,6.029,13.2983,4.59986,2469.83,2021-4-28T07:24:23Z
2021-04-28T05:26:17Z,42.805,6.029,13.2984,4.59986,2469.806,2021-4-28T07:27:26Z
2021-04-28T05:29:20Z,42.805,6.029,13.2980,4.59986,2469.806,2021-4-28T07:30:30Z
2021-04-28T05:32:23Z,42.805,6.029,13.2981,4.59986,2469.83,2021-4-28T07:33:33Z
2021-04-28T05:35:26Z,42.805,6.029,13.2986,4.59986,2469.853,2021-4-28T07:36:36Z
2021-04-28T05:38:29Z,42.805,6.029,13.2984,4.59986,2469.867,2021-4-28T07:39:39Z
2021-04-28T05:41:32Z,42.805,6.029,13.2982,4.59985,2469.821,2021-4-28T07:42:42Z
2021-04-28T05:44:36Z,42.805,6.029,13.2982,4.59986,2469.853,2021-4-28T07:45:45Z
2021-04-28T05:47:39Z,42.805,6.029,13.2982,4.59985,2469.853,2021-4-28T07:48:48Z
2021-04-28T05:50:42Z,42.805,6.029,13.2980,4.59986,2469.853,2021-4-28T07:51:51Z
2021-04-28T05:53:45Z,42.805,6.029,13.2979,4.59986,2469.867,2021-4-28T07:54:55Z
2021-04-28T05:56:48Z,42.805,6.029,13.2979,4.59985,2469.867,2021-4-28T07:57:58Z
2021-04-28T05:59:51Z,42.805,6.029,13.2980,4.59986,2469.867,2021-4-28T08:01:01Z
2021-04-28T06:02:54Z,42.805,6.029,13.2981,4.59986,2469.89,2021-4-28T08:04:04Z
2021-04-28T06:05:57Z,42.805,6.029,13.2980,4.59986,2469.914,2021-4-28T08:07:07Z
2021-04-28T06:09:01Z,42.805,6.029,13.2979,4.59986,2469.9,2021-4-28T08:10:10Z
2021-04-28T06:12:04Z,42.805,6.029,13.2979,4.59986,2469.876,2021-4-28T08:13:13Z
2021-04-28T06:15:07Z,42.805,6.029,13.2980,4.59986,2469.9,2021-4-28T08:16:16Z
2021-04-28T06:18:10Z,42.805,6.029,13.2981,4.59987,2469.9,2021-4-28T08:19:20Z
2021-04-28T06:21:13Z,42.805,6.029,13.2980,4.59986,2469.9,2021-4-28T08:22:23Z
2021-04-28T06:24:16Z,42.805,6.029,13.2980,4.59987,2469.89,2021-4-28T08:25:26Z
2021-04-28T06:27:19Z,42.805,6.029,13.2981,4.59988,2469.9,2021-4-28T08:28:29Z
2021-04-28T06:30:22Z,42.805,6.029,13.2978,4.59986,2469.9,2021-4-28T08:31:32Z
2021-04-28T06:33:26Z,42.805,6.029,13.2986,4.59986,2469.914,2021-4-28T08:34:35Z
2021-04-28T06:36:29Z,42.805,6.029,13.2979,4.59986,2469.9,2021-4-28T08:37:38Z
2021-04-28T06:39:32Z,42.805,6.029,13.2983,4.59987,2469.96,2021-4-28T08:40:41Z
2021-04-28T06:42:35Z,42.805,6.029,13.2981,4.59988,2469.937,2021-4-28T08:43:45Z
2021-04-28T06:45:38Z,42.805,6.029,13.2983,4.59986,2469.923,2021-4-28T08:46:48Z
2021-04-28T06:48:41Z,42.805,6.029,13.2980,4.59986,2469.914,2021-4-28T08:49:51Z
2021-04-28T06:51:44Z,42.805,6.029,13.2982,4.59986,2469.947,2021-4-28T08:52:54Z
2021-04-28T06:54:47Z,42.805,6.029,13.2977,4.59986,2469.96,2021-4-28T08:55:57Z
2021-04-28T06:57:50Z,42.805,6.029,13.2982,4.59986,2469.9,2021-4-28T08:59:00Z
2021-04-28T07:00:54Z,42.805,6.029,13.2985,4.59986,2469.96,2021-4-28T09:02:03Z
2021-04-28T07:03:57Z,42.805,6.029,13.2983,4.59986,2469.96,2021-4-28T09:05:06Z
2021-04-28T07:07:00Z,42.805,6.029,13.2982,4.59986,2469.97,2021-4-28T09:08:10Z
2021-04-28T07:10:03Z,42.805,6.029,13.2983,4.59986,2469.96,2021-4-28T09:11:13Z
2021-04-28T07:13:06Z,42.805,6.029,13.2982,4.59986,2469.984,2021-4-28T09:14:16Z
2021-04-28T07:16:09Z,42.805,6.029,13.2979,4.59986,2469.97,2021-4-28T09:17:19Z
2021-04-28T07:19:12Z,42.805,6.029,13.2978,4.59986,2469.984,2021-4-28T09:20:22Z
2021-04-28T07:22:15Z,42.805,6.029,13.2977,4.59986,2469.993,2021-4-28T09:23:25Z
2021-04-28T07:25:19Z,42.805,6.029,13.2983,4.59985,2469.97,2021-4-28T09:26:28Z
2021-04-28T07:28:22Z,42.805,6.029,13.2982,4.59986,2469.984,2021-4-28T09:29:31Z
2021-04-28T07:31:25Z,42.805,6.029,13.2981,4.59986,2469.947,2021-4-28T09:32:34Z
2021-04-28T07:34:28Z,42.805,6.029,13.2979,4.59985,2469.993,2021-4-28T09:35:38Z
2021-04-28T07:37:31Z,42.805,6.029,13.2982,4.59986,2469.984,2021-4-28T09:38:41Z
2021-04-28T07:40:34Z,42.805,6.029,13.2983,4.59985,2469.947,2021-4-28T09:41:44Z
2021-04-28T07:43:37Z,42.805,6.029,13.2983,4.59986,2469.947,2021-4-28T09:44:47Z
2021-04-28T07:46:40Z,42.805,6.029,13.2983,4.59986,2469.97,2021-4-28T09:47:50Z
2021-04-28T07:49:44Z,42.805,6.029,13.2982,4.59986,2469.923,2021-4-28T09:50:53Z
2021-04-28T07:52:47Z,42.805,6.029,13.2981,4.59986,2469.937,2021-4-28T09:53:56Z
2021-04-28T07:55:50Z,42.805,6.029,13.2978,4.59985,2469.923,2021-4-28T09:56:59Z
2021-04-28T07:58:53Z,42.805,6.029,13.2983,4.59986,2469.923,2021-4-28T10:00:03Z
2021-04-28T08:01:56Z,42.805,6.029,13.2979,4.59986,2469.9,2021-4-28T10:03:06Z
2021-04-28T08:04:59Z,42.805,6.029,13.2978,4.59986,2469.9,2021-4-28T10:06:09Z
2021-04-28T08:08:02Z,42.805,6.029,13.2983,4.59986,2469.923,2021-4-28T10:09:12Z
2021-04-28T08:11:05Z,42.805,6.029,13.2982,4.59986,2469.947,2021-4-28T10:12:15Z
2021-04-28T08:14:09Z,42.805,6.029,13.2982,4.59986,2469.909,2021-4-28T10:15:18Z
2021-04-28T08:17:12Z,42.805,6.029,13.2982,4.59985,2469.923,2021-4-28T10:18:21Z
2021-04-28T08:20:15Z,42.805,6.029,13.2980,4.59986,2469.97,2021-4-28T10:21:24Z
2021-04-28T08:23:18Z,42.805,6.029,13.2981,4.59985,2470.007,2021-4-28T10:24:28Z
2021-04-28T08:26:21Z,42.805,6.029,13.2986,4.59985,2470.03,2021-4-28T10:27:31Z
2021-04-28T08:29:24Z,42.805,6.029,13.2978,4.59987,2470.04,2021-4-28T10:30:34Z
2021-04-28T08:32:27Z,42.805,6.029,13.2981,4.59986,2470.04,2021-4-28T10:33:37Z
2021-04-28T08:35:30Z,42.805,6.029,13.2976,4.59986,2470.087,2021-4-28T10:36:40Z
2021-04-28T08:38:34Z,42.805,6.029,13.2982,4.59986,2470.133,2021-4-28T10:39:43Z
2021-04-28T08:41:37Z,42.805,6.029,13.2979,4.59986,2470.133,2021-4-28T10:42:46Z
2021-04-28T08:44:40Z,42.805,6.029,13.2980,4.59986,2470.156,2021-4-28T10:45:49Z
2021-04-28T08:47:43Z,42.805,6.029,13.2983,4.59986,2470.18,2021-4-28T10:48:53Z
2021-04-28T08:50:46Z,42.805,6.029,13.2982,4.59987,2470.156,2021-4-28T10:51:56Z
2021-04-28T08:53:49Z,42.805,6.029,13.2980,4.59985,2470.194,2021-4-28T10:54:59Z
2021-04-28T08:56:52Z,42.805,6.029,13.2982,4.59986,2470.18,2021-4-28T10:58:02Z
2021-04-28T08:59:55Z,42.805,6.029,13.2982,4.59986,2470.227,2021-4-28T11:01:05Z
2021-04-28T09:02:59Z,42.805,6.029,13.2983,4.59986,2470.25,2021-4-28T11:04:08Z
2021-04-28T09:06:02Z,42.805,6.029,13.2983,4.59985,2470.203,2021-4-28T11:07:11Z
2021-04-28T09:09:05Z,42.805,6.029,13.2982,4.59985,2470.25,2021-4-28T11:10:15Z
2021-04-28T09:12:08Z,42.805,6.029,13.2980,4.59985,2470.227,2021-4-28T11:13:18Z
2021-04-28T09:15:11Z,42.805,6.029,13.2980,4.59985,2470.217,2021-4-28T11:16:21Z
2021-04-28T09:18:14Z,42.805,6.029,13.2978,4.59985,2470.24,2021-4-28T11:19:24Z
2021-04-28T09:21:17Z,42.805,6.029,13.2982,4.59985,2470.227,2021-4-28T11:22:27Z
2021-04-28T09:24:20Z,42.805,6.029,13.2982,4.59986,2470.203,2021-4-28T11:25:30Z
2021-04-28T09:27:24Z,42.805,6.029,13.2981,4.59985,2470.194,2021-4-28T11:28:33Z
2021-04-28T09:30:27Z,42.805,6.029,13.2982,4.59986,2470.217,2021-4-28T11:31:36Z
2021-04-28T09:33:30Z,42.805,6.029,13.2986,4.59985,2470.203,2021-4-28T11:34:40Z
2021-04-28T09:36:33Z,42.805,6.029,13.2982,4.59986,2470.203,2021-4-28T11:37:43Z
2021-04-28T09:39:36Z,42.805,6.029,13.2983,4.59986,2470.217,2021-4-28T11:40:46Z
2021-04-28T09:42:39Z,42.805,6.029,13.2979,4.59985,2470.227,2021-4-28T11:43:49Z
2021-04-28T09:45:42Z,42.805,6.029,13.2981,4.59986,2470.133,2021-4-28T11:46:52Z
2021-04-28T09:48:46Z,42.805,6.029,13.2979,4.59986,2470.156,2021-4-28T11:49:55Z
2021-04-28T09:51:49Z,42.805,6.029,13.2983,4.59986,2470.133,2021-4-28T11:52:58Z
2021-04-28T09:54:52Z,42.805,6.029,13.2980,4.59985,2470.087,2021-4-28T11:56:01Z
2021-04-28T09:57:55Z,42.805,6.029,13.2983,4.59985,2470.053,2021-4-28T11:59:05Z
2021-04-28T10:00:58Z,42.805,6.029,13.2981,4.59985,2470.053,2021-4-28T12:02:08Z
2021-04-28T10:04:01Z,42.805,6.029,13.2982,4.59986,2470.077,2021-4-28T12:05:11Z
2021-04-28T10:07:04Z,42.805,6.029,13.2982,4.59984,2470.063,2021-4-28T12:08:14Z
2021-04-28T10:10:07Z,42.805,6.029,13.2979,4.59985,2470.03,2021-4-28T12:11:17Z
2021-04-28T10:13:11Z,42.805,6.029,13.2982,4.59985,2470.04,2021-4-28T12:14:20Z
2021-04-28T10:16:14Z,42.805,6.029,13.2983,4.59984,2470.007,2021-4-28T12:17:23Z
2021-04-28T10:19:17Z,42.805,6.029,13.2980,4.59984,2470.04,2021-4-28T12:20:26Z
2021-04-28T10:22:20Z,42.805,6.029,13.2981,4.59984,2470.017,2021-4-28T12:23:30Z
2021-04-28T10:25:23Z,42.805,6.029,13.2982,4.59986,2470.017,2021-4-28T12:26:33Z
2021-04-28T10:28:26Z,42.805,6.029,13.2982,4.59984,2469.993,2021-4-28T12:29:36Z
2021-04-28T10:31:29Z,42.805,6.029,13.2978,4.59985,2470.077,2021-4-28T12:32:39Z
2021-04-28T10:34:32Z,42.805,6.029,13.2977,4.59985,2469.97,2021-4-28T12:35:42Z
2021-04-28T10:37:36Z,42.805,6.029,13.2981,4.59985,2469.993,2021-4-28T12:38:45Z
2021-04-28T10:40:39Z,42.805,6.029,13.2981,4.59985,2469.984,2021-4-28T12:41:48Z
2021-04-28T10:43:42Z,42.805,6.029,13.2983,4.59986,2470.007,2021-4-28T12:44:51Z
2021-04-28T10:46:45Z,42.805,6.029,13.2980,4.59985,2470.017,2021-4-28T12:47:55Z
2021-04-28T10:49:48Z,42.805,6.029,13.2982,4.59986,2470.017,2021-4-28T12:50:58Z
2021-04-28T10:52:51Z,42.805,6.029,13.2984,4.59984,2470.017,2021-4-28T12:54:01Z
2021-04-28T10:55:54Z,42.805,6.029,13.2980,4.59986,2469.937,2021-4-28T12:57:04Z
2021-04-28T10:58:57Z,42.805,6.029,13.2982,4.59984,2469.947,2021-4-28T13:00:07Z
2021-04-28T11:02:01Z,42.805,6.029,13.2981,4.59984,2469.97,2021-4-28T13:03:10Z
2021-04-28T11:05:04Z,42.805,6.029,13.2982,4.59984,2470.007,2021-4-28T13:06:13Z
2021-04-28T11:08:07Z,42.805,6.029,13.2977,4.59986,2469.937,2021-4-28T13:09:16Z
2021-04-28T11:11:10Z,42.805,6.029,13.2980,4.59985,2469.96,2021-4-28T13:12:20Z
2021-04-28T11:14:13Z,42.805,6.029,13.2981,4.59984,2469.937,2021-4-28T13:15:23Z
2021-04-28T11:17:16Z,42.805,6.029,13.2979,4.59984,2469.923,2021-4-28T13:18:26Z
2021-04-28T11:20:19Z,42.805,6.029,13.2980,4.59986,2469.947,2021-4-28T13:21:29Z
2021-04-28T11:23:22Z,42.805,6.029,13.2978,4.59986,2469.9,2021-4-28T13:24:32Z
2021-04-28T11:26:26Z,42.805,6.029,13.2981,4.59984,2469.9,2021-4-28T13:27:35Z
2021-04-28T11:29:29Z,42.805,6.029,13.2982,4.59986,2469.923,2021-4-28T13:30:38Z
2021-04-28T11:32:32Z,42.805,6.029,13.2981,4.59984,2469.947,2021-4-28T13:33:42Z
2021-04-28T11:35:35Z,42.805,6.029,13.2977,4.59985,2469.876,2021-4-28T13:36:45Z
2021-04-28T11:38:38Z,42.805,6.029,13.2981,4.59984,2469.923,2021-4-28T13:39:48Z
2021-04-28T11:41:41Z,42.805,6.029,13.2979,4.59984,2469.9,2021-4-28T13:42:51Z
2021-04-28T11:44:44Z,42.805,6.029,13.2982,4.59984,2469.853,2021-4-28T13:45:54Z
2021-04-28T11:47:48Z,42.805,6.029,13.2981,4.59984,2469.867,2021-4-28T13:48:57Z
2021-04-28T11:50:51Z,42.805,6.029,13.2981,4.59984,2469.89,2021-4-28T13:52:00Z
2021-04-28T11:53:54Z,42.805,6.029,13.2980,4.59985,2469.853,2021-4-28T13:55:03Z
2021-04-28T11:56:57Z,42.805,6.029,13.2983,4.59986,2469.867,2021-4-28T13:58:07Z
2021-04-28T12:00:00Z,42.805,6.029,13.2978,4.59985,2469.806,2021-4-28T14:01:10Z
2021-04-28T12:03:03Z,42.805,6.029,13.2981,4.59983,2469.853,2021-4-28T14:04:13Z
2021-04-28T12:06:06Z,42.805,6.029,13.2980,4.59986,2469.867,2021-4-28T14:07:16Z
2021-04-28T12:09:09Z,42.805,6.029,13.2983,4.59985,2469.867,2021-4-28T14:10:19Z
2021-04-28T12:12:13Z,42.805,6.029,13.2983,4.59984,2469.853,2021-4-28T14:13:22Z
2021-04-28T12:15:16Z,42.805,6.029,13.2980,4.59984,2469.853,2021-4-28T14:16:25Z
2021-04-28T12:18:19Z,42.805,6.029,13.2979,4.59984,2469.821,2021-4-28T14:19:28Z
2021-04-28T12:21:22Z,42.805,6.029,13.2982,4.59984,2469.83,2021-4-28T14:22:32Z
2021-04-28T12:24:25Z,42.805,6.029,13.2977,4.59983,2469.797,2021-4-28T14:25:35Z
2021-04-28T12:27:28Z,42.805,6.029,13.2977,4.59983,2469.839,2021-4-28T14:28:38Z
2021-04-28T12:30:31Z,42.805,6.029,13.2976,4.59984,2469.806,2021-4-28T14:31:41Z
2021-04-28T12:33:34Z,42.805,6.029,13.2983,4.59985,2469.806,2021-4-28T14:34:44Z
2021-04-28T12:36:38Z,42.805,6.029,13.2980,4.59984,2469.783,2021-4-28T14:37:47Z
2021-04-28T12:39:41Z,42.805,6.029,13.2979,4.59984,2469.806,2021-4-28T14:40:50Z
2021-04-28T12:42:44Z,42.805,6.029,13.2980,4.59986,2469.76,2021-4-28T14:43:53Z
2021-04-28T12:45:47Z,42.805,6.029,13.2978,4.59984,2469.821,2021-4-28T14:46:57Z
2021-04-28T12:48:50Z,42.805,6.029,13.2981,4.59985,2469.783,2021-4-28T14:50:00Z
2021-04-28T12:51:53Z,42.805,6.029,13.2983,4.59985,2469.821,2021-4-28T14:53:03Z
2021-04-28T12:54:56Z,42.805,6.029,13.2979,4.59984,2469.76,2021-4-28T14:56:06Z
2021-04-28T12:57:59Z,42.805,6.029,13.2978,4.59984,2469.797,2021-4-28T14:59:09Z
2021-04-28T13:01:03Z,42.805,6.029,13.2982,4.59984,2469.783,2021-4-28T15:02:12Z
2021-04-28T13:04:06Z,42.805,6.029,13.2983,4.59984,2469.783,2021-4-28T15:05:15Z
2021-04-28T13:07:09Z,42.805,6.029,13.2980,4.59984,2469.783,2021-4-28T15:08:18Z
2021-04-28T13:10:12Z,42.805,6.029,13.2981,4.59985,2469.76,2021-4-28T15:11:22Z
2021-04-28T13:13:15Z,42.805,6.029,13.2981,4.59984,2469.783,2021-4-28T15:14:25Z
2021-04-28T13:16:18Z,42.805,6.029,13.2982,4.59984,2469.76,2021-4-28T15:17:28Z
2021-04-28T13:19:21Z,42.805,6.029,13.2982,4.59983,2469.773,2021-4-28T15:20:31Z
2021-04-28T13:22:24Z,42.805,6.029,13.2983,4.59984,2469.76,2021-4-28T15:23:34Z
2021-04-28T13:25:28Z,42.805,6.029,13.2978,4.59983,2469.76,2021-4-28T15:26:37Z
2021-04-28T13:28:31Z,42.805,6.029,13.2979,4.59983,2469.783,2021-4-28T15:29:40Z
2021-04-28T13:31:34Z,42.805,6.029,13.2982,4.59983,2469.737,2021-4-28T15:32:44Z
2021-04-28T13:34:37Z,42.805,6.029,13.2977,4.59985,2469.75,2021-4-28T15:35:47Z
2021-04-28T13:37:40Z,42.805,6.029,13.2980,4.59985,2469.737,2021-4-28T15:38:50Z
2021-04-28T13:40:43Z,42.805,6.029,13.2979,4.59983,2469.727,2021-4-28T15:41:53Z
2021-04-28T13:43:46Z,42.805,6.029,13.2979,4.59983,2469.9,2021-4-28T15:44:56Z
2021-04-28T13:46:49Z,42.805,6.029,13.2982,4.59985,2470.017,2021-4-28T15:47:59Z
2021-04-28T13:49:53Z,42.805,6.029,13.2976,4.59985,2469.853,2021-4-28T15:51:02Z
2021-04-28T13:52:56Z,42.805,6.029,13.2979,4.59985,2469.853,2021-4-28T15:54:05Z
2021-04-28T13:55:59Z,42.805,6.029,13.2980,4.59985,2469.9,2021-4-28T15:57:09Z
2021-04-28T13:59:02Z,42.805,6.029,13.2982,4.59986,2469.984,2021-4-28T16:00:12Z
2021-04-28T14:02:05Z,42.805,6.029,13.2984,4.59983,2469.96,2021-4-28T16:03:15Z
2021-04-28T14:05:08Z,42.805,6.029,13.2982,4.59985,2470.087,2021-4-28T16:06:18Z
2021-04-28T14:08:11Z,42.805,6.029,13.2983,4.59983,2470.124,2021-4-28T16:09:21Z
2021-04-28T14:11:15Z,42.805,6.029,13.2979,4.59986,2470.087,2021-4-28T16:12:24Z
2021-04-28T14:14:18Z,42.805,6.029,13.2982,4.59986,2470.11,2021-4-28T16:15:27Z
2021-04-28T14:17:21Z,42.805,6.029,13.2980,4.59984,2470.171,2021-4-28T16:18:30Z
2021-04-28T14:20:24Z,42.805,6.029,13.2976,4.59985,2470.171,2021-4-28T16:21:34Z
2021-04-28T14:23:27Z,42.805,6.029,13.2979,4.59983,2470.171,2021-4-28T16:24:37Z
2021-04-28T14:26:30Z,42.805,6.029,13.2977,4.59984,2470.203,2021-4-28T16:27:40Z
2021-04-28T14:29:33Z,42.805,6.029,13.2978,4.59984,2470.203,2021-4-28T16:30:43Z
2021-04-28T14:32:36Z,42.805,6.029,13.2981,4.59987,2470.203,2021-4-28T16:33:46Z
2021-04-28T14:35:40Z,42.805,6.029,13.2980,4.59985,2470.203,2021-4-28T16:36:49Z
2021-04-28T14:38:43Z,42.805,6.029,13.2976,4.59985,2470.217,2021-4-28T16:39:52Z
2021-04-28T14:41:46Z,42.805,6.029,13.2982,4.59984,2470.203,2021-4-28T16:42:55Z
2021-04-28T14:44:49Z,42.805,6.029,13.2982,4.59986,2470.25,2021-4-28T16:45:59Z
2021-04-28T14:47:52Z,42.805,6.029,13.2982,4.59986,2470.227,2021-4-28T16:49:02Z
2021-04-28T14:50:55Z,42.805,6.029,13.2982,4.59984,2470.194,2021-4-28T16:52:05Z
2021-04-28T14:53:58Z,42.805,6.029,13.2978,4.59986,2470.273,2021-4-28T16:55:08Z
2021-04-28T14:57:01Z,42.805,6.029,13.2984,4.59985,2470.24,2021-4-28T16:58:11Z
2021-04-28T15:00:05Z,42.805,6.029,13.2982,4.59985,2470.25,2021-4-28T17:01:14Z
2021-04-28T15:03:08Z,42.805,6.029,13.2977,4.59984,2470.25,2021-4-28T17:04:17Z
2021-04-28T15:06:11Z,42.805,6.029,13.2978,4.59984,2470.25,2021-4-28T17:07:20Z
2021-04-28T15:09:14Z,42.805,6.029,13.2976,4.59986,2470.24,2021-4-28T17:10:24Z
2021-04-28T15:12:17Z,42.805,6.029,13.2980,4.59985,2470.283,2021-4-28T17:13:27Z
2021-04-28T15:15:20Z,42.805,6.029,13.2978,4.59985,2470.25,2021-4-28T17:16:30Z